Terminal Aerodrome Forecast
Issued by NWS Pittsburgh, PA

Current Version | Previous Version | Graphics & Text | Print | Product List | Glossary On
Versions: 1 2 3 4 5 6 7 8 9 10 11 12 13 14 15 16 17 18 19 20 21 22 23 24 25 26 27 28 29 30 31 32 33 34 35 36 37 38 39
645
FTUS41 KPBZ 280255 AAA
TAFPIT
TAF AMD
KPIT 280255Z 2803/2906 02005KT P6SM OVC200
     FM281100 08007KT 3SM -SHRA OVC015
     FM281400 08007KT 3SM -SHRA BR OVC008
     FM281800 08005KT P6SM VCSH BKN015=

USA.gov is the U.S. government's official web portal to all federal, state and local government web resources and services.